STARLINK-32434, 61913

Orbit data source: Space-Track

STARLINK-32434, 61913 is a payload satellite owned by SpaceX/Seattle (US) in LEO that was launched on Mon, 11 Nov 2024 UTC via an FALCON 9 launch vehicle from the Air Force Eastern Test Range (AFETR). Payload-class satellites include a variety of spacecraft equipped with specific instruments for various scientific and technological missions. These include communications satellites like Starlink; space stations such as the ISS; scientific satellites like the Hubble; Earth observation satellites from companies like Planet Labs, Umbra, and HawkEye 360; GPS; miniature CubeSats for education and research; and military/defense satellites.

Loading next visibility...
Identifier
61913, 2024-207B
Orbit
LEO
Country
Flag of USUS
Related business
Manufacturer
SpaceX/Seattle
Mission
Operational Commercial Communications
Bus & Motor
STARLINK V2M, Unknown motor
Mass
730 kg wet, ~700 kg dry
Launch date (UTC)
2024-11-11 (1 year ago)
Launch vehicle
FALCON 9
Launch site
Air Force Eastern Test Range (AFETR)
Object type
Payload
Rocket body
Debris
Shape & HBR
Box + 2 Pan, 17.7 m
Radar Cross Section
33.884 m², Large (>1 m²)

Expand to show TLE details & history
Last TLE update: 15 hours ago

TLE from 15 hours ago
0 STARLINK-32434
1 61913U 24207B   25340.67838208  .00050572  00000-0  18325-2 0  9991
2 61913  43.0024  87.3373 0001387 269.9280  90.1413 15.27619507 60491
Epoch: 2025-12-06T16:16Z
TLE epoch observation values (Epoch: 2025-12-06T16:16:52.211Z)
Latitude
-0.00001°
Longitude
127.41707°
Altitude
482.709 km
Speed
7.626 km/s
True Right ascension
05h 49m 20s
True Declination
0° 00' 00"
Sunlit
Object was in full shadow at epoch
Visualization orbit readout
Latitude
Unknown
Longitude
Unknown
Altitude
Unknown
Speed
Unknown
Apparent Right ascension
Unknown
Apparent Declination
Unknown
Sunlit
N/A
Visualization observer readout
Local Sidereal Time
05:06:24
Azimuth
Unknown
Elevation
Unknown
Doppler factor
Unknown
Orbital elements
Apogee altitude
485.828 km
Perigee altitude
483.924 km
Semi-major axis
6,863.013 km
Eccentricity
0.00014
Inclination
43.0024°
RAAN
87.3373°
Arg. of periapsis
269.928°
True anomaly
90.15719°
Mean anomaly
90.1413°
Eccentric anomaly
90.14925°
Mean motion
3.81743 °/min
Orbital period
94.3 mins
BSTAR
0.0018325
Loading maneuver chart data...
Computing Atmospheric mass density...
Loading historical data...
Loading historical data...
Loading historical data...
Loading historical data...
Loading historical data...
Loading historical data...
Loading historical data...

Documentation

Showing up to 5 results
|